Flag for Austria Weather past 2 weeks in Graz, Styria, Austria

Now
55 °F

Overcast.


Feels Like: 54 °F
Forecast: 40 / 67 °F
Wind: 6 mph from East

Location: Graz-Thalerhof-Flughafen


UV Index: 0 (Low)

Visibility: N/A


Pressure: 29.77 "Hg

Humidity: 38%

Dew point: 30 °F

Location of GrazLocation

Historic Weather in Graz

°F

Graz temperature yesterday

Maximum temperature yesterday: 57 °F (at 1:50 PM)
Minimum temperature yesterday: 37 °F (at 1:50 AM)
Average temperature yesterday: 48 °F

Past Weeks' High & Low Weather Summary

 TemperatureHumidityPressure
High75 °F (Apr 8, 3:20 PM)100% (Apr 6, 5:50 AM)30.24 "Hg (Apr 6, 5:50 AM)
Low32 °F (Apr 10, 5:50 AM)21% (Apr 18, 3:50 PM)29.71 "Hg (Apr 4, 3:50 AM)
Average52 °F64%30.00 "Hg
* Reported Apr 3 10:20 PM — Apr 18 10:20 PM, Graz, Weather by CustomWeather, © 2014

Note: Actual official high and low records may vary slightly from our data, if they occured in-between our weather recording intervals... More about our weather records

Advertising

Historic Weather Conditions — Data for Previous 24 hours

 ConditionsComfort  
Time TempWeatherWind HumidityBarometerVisibility
10:20 PM
Apr 18
57 °FMostly cloudy.9 mph36%29.77 "HgN/A
9:50 PM57 °FPartly cloudy.10 mph36%29.77 "HgN/A
9:20 PM57 °FPartly cloudy.12 mph39%29.77 "HgN/A
8:50 PM59 °FPartly cloudy.13 mph36%29.74 "HgN/A
8:20 PM59 °FBroken clouds.8 mph45%29.74 "HgN/A
7:50 PM59 °FPartly sunny.6 mph48%29.74 "HgN/A
7:20 PM61 °FSunny.10 mph42%29.71 "Hg10 mi
6:50 PM61 °FSunny.13 mph45%29.71 "Hg10 mi
6:20 PM63 °FSunny.12 mph37%29.71 "Hg10 mi
5:50 PM64 °FPassing clouds.9 mph30%29.71 "HgN/A
5:20 PM64 °FPassing clouds.7 mph28%29.71 "HgN/A
4:50 PM64 °FPassing clouds.6 mph24%29.71 "HgN/A
4:20 PM66 °FPartly sunny.7 mph22%29.71 "HgN/A
3:50 PM64 °FPartly sunny.7 mph21%29.71 "HgN/A
3:20 PM64 °FPartly sunny.6 mph24%29.71 "HgN/A
2:50 PM64 °FPartly sunny.8 mph28%29.74 "HgN/A
2:20 PM63 °FPartly sunny.6 mph30%29.74 "HgN/A
1:50 PM63 °FBroken clouds.7 mph32%29.74 "HgN/A
1:20 PM63 °FBroken clouds.5 mph30%29.77 "HgN/A
12:50 PM61 °FScattered clouds.3 mph31%29.77 "HgN/A
12:20 PM61 °FScattered clouds.6 mph31%29.77 "HgN/A
11:50 AM59 °FScattered clouds.6 mph31%29.80 "HgN/A
11:20 AM57 °FSunny.5 mph39%29.80 "Hg10 mi
10:50 AM55 °FSunny.2 mph41%29.83 "Hg10 mi
10:20 AM54 °FSunny.2 mph41%29.83 "Hg10 mi
9:50 AM52 °FSunny.2 mph50%29.83 "Hg10 mi
9:20 AM48 °FPassing clouds.5 mph54%29.86 "HgN/A
8:50 AM46 °FPassing clouds.5 mph57%29.86 "HgN/A
8:20 AM45 °FSunny.2 mph61%29.86 "Hg10 mi
7:50 AM43 °FSunny.2 mph66%29.86 "Hg10 mi
7:20 AM37 °FSunny.2 mph81%29.86 "Hg10 mi
6:50 AM34 °FClear.2 mph87%29.86 "Hg10 mi
6:20 AM34 °FClear.1 mph87%29.89 "Hg10 mi
5:50 AM34 °FClear.1 mph87%29.89 "Hg10 mi
5:20 AM34 °FClear.1 mph87%29.89 "Hg10 mi
4:50 AM36 °FClear.1 mph87%29.89 "Hg10 mi
4:20 AM36 °FClear.1 mph81%29.92 "Hg10 mi
3:50 AM37 °FClear.2 mph75%29.92 "Hg10 mi
3:20 AM37 °FChilly.2 mph75%29.92 "HgN/A
2:50 AM41 °FQuite cool.2 mph70%29.95 "HgN/A
2:20 AM43 °FQuite cool.1 mph66%29.95 "HgN/A
1:50 AM46 °FPassing clouds.3 mph53%29.95 "HgN/A
1:20 AM48 °FOvercast.2 mph50%29.95 "HgN/A
12:50 AM48 °FOvercast.2 mph50%29.98 "HgN/A
12:20 AM48 °FOvercast.5 mph50%29.98 "HgN/A
11:50 PM
Apr 17
48 °FOvercast.6 mph50%30.01 "HgN/A
11:20 PM46 °FPassing clouds.3 mph53%30.01 "HgN/A
Weather by CustomWeather, © 2014

See weather overview